This is the latest recevied weather packets stored in our database for station/object OK2ILA-13. If no packets are shown the sender has not sent any weather packets the latest 10 day(s).
| Time | Temp. | Humidity | Pressure | Rain* | Wind** | Luminosity | Snow |
|---|---|---|---|---|---|---|---|
| 1777393826 | 8.33° C | 29% | 1021.3 hPa | - | - | - | - |
| 1777392027 | 8.89° C | 29% | 1021.2 hPa | - | - | - | - |
| 1777390228 | 9.44° C | 30% | 1021.3 hPa | - | - | - | - |
| 1777389628 | 9.44° C | 33% | 1021.3 hPa | - | - | - | - |
| 1777389029 | 9.44° C | 34% | 1021.3 hPa | - | - | - | - |
| 1777388429 | 9.44° C | 33% | 1021.4 hPa | - | - | - | - |
| 1777386631 | 10° C | 37% | 1021.5 hPa | - | - | - | - |
| 1777384789 | 10° C | 40% | 1021.7 hPa | - | - | - | - |
| 1777382990 | 10° C | 43% | 1021.8 hPa | - | - | - | - |
| 1777382390 | 10° C | 40% | 1021.8 hPa | - | - | - | - |
| 1777381790 | 10° C | 40% | 1021.9 hPa | - | - | - | - |
| 1777378792 | 10° C | 43% | 1021.9 hPa | - | - | - | - |
| 1777373994 | 9.44° C | 45% | 1022.1 hPa | - | - | - | - |
| 1777372194 | 8.89° C | 46% | 1022.1 hPa | - | - | - | - |
| 1777371595 | 8.89° C | 46% | 1022.2 hPa | - | - | - | - |
| 1777370995 | 9.44° C | 48% | 1022.4 hPa | - | - | - | - |
| 1777370395 | 8.33° C | 48% | 1022.4 hPa | - | - | - | - |
| 1777369795 | 9.44° C | 45% | 1022.3 hPa | - | - | - | - |
| 1777369195 | 8.33° C | 46% | 1022.4 hPa | - | - | - | - |
| 1777368595 | 8.89° C | 47% | 1022.4 hPa | - | - | - | - |
| 1777367996 | 8.33° C | 46% | 1022.3 hPa | - | - | - | - |
| 1777367396 | 8.89° C | 46% | 1022.3 hPa | - | - | - | - |
| 1777366197 | 8.89° C | 46% | 1022.2 hPa | - | - | - | - |
| 1777365597 | 7.78° C | 48% | 1022.2 hPa | - | - | - | - |
| 1777364997 | 8.33° C | 47% | 1022.2 hPa | - | - | - | - |
* Rain since midnight (hover to see other rain measurements)
** Current wind speed in m/s (hover to see current wind gust speed)